Regional Weather Roundup
Issued by NWS

Home | Current Version | Previous Version | Graphics & Text | Print | Product List | Glossary On
Versions: 1 2 3 4 5 6 7 8 9 10 11 12 13 14 15 16 17 18 19 20 21 22 23 24 25 26 27 28 29 30 31 32 33 34 35 36 37 38 39 40 41 42 43 44 45 46 47 48 49 50
000
ASUS45 KSLC 252210
RWRUT

UTAH REGIONAL WEATHER ROUNDUP
NATIONAL WEATHER SERVICE SALT LAKE CITY UT
400 PM MDT MON MAY 25 2015

UTZ001>011-023>025-252300-

NORTHERN UTAH

CITY           SKY/WX    TMP DP  RH WIND       PRES   REMARKS
BRIGHAM CITY   MOSUNNY   67  44  42 S5        29.94F
HILL AFB       NOT AVBL
LOGAN          LGT RAIN  61  48  62 CALM      29.94F
OGDEN          MOSUNNY   67  44  43 VRB6      29.94F
PROVO AIRPORT  MOSUNNY   64  43  45 SW7       29.99F
SALT LAKE CITY PTSUNNY   70  42  36 NW8       29.94F
VERNAL         MOSUNNY   62  43  49 VRB3      29.97F
WENDOVER       PTSUNNY   63  50  63 SE8       29.94F
HEBER CITY     PTSUNNY   61  45  55 SW12      29.99S
WEST JORDAN    MOSUNNY   64  45  48 S10       29.97F

$$

UTZ012>022-026-027-252300-

SOUTHERN/CENTRAL UTAH

CITY           SKY/WX    TMP DP  RH WIND       PRES   REMARKS
BLANDING       PTSUNNY   59  45  58 CALM      30.09F
BRYCE CANYON   MOSUNNY   63  30  28 NW14G21   30.09S
CEDAR CITY     MOSUNNY   66  34  30 E3        30.01S
DELTA          PTSUNNY   69  37  31 N7        29.96F
HANKSVILLE     PTSUNNY   70  39  32 N8        29.95S
MILFORD        MOSUNNY   70  41  34 VRB5      29.97F
MOAB/CYNLANDS  PTSUNNY   68  42  38 NE15      29.93R
PRICE          PTSUNNY   60  43  53 E12       29.99S
ST GEORGE      PTCLDY    81  45  28 W10G16    29.92F
KANAB          MOSUNNY   72  37  28 SW10      30.02F

$$

REGIONAL REPORTS     COLORADO/ARIZONA

CITY           SKY/WX    TMP DP  RH WIND       PRES   REMARKS
CRAIG, CO      PTSUNNY   61  42  49 MISG      30.00S
GRAND JUNCTION MOSUNNY   64  42  44 W9        29.95F
RIFLE          CLOUDY    59  43  55 N5        29.98F
MONTROSE       MOSUNNY   62  40  44 CALM      30.02F
CORTEZ         CLOUDY    50  46  86 E14       30.07R
PAGE, AZ       CLOUDY    72  44  36 N5        29.95S
GRAND CANYON   MOSUNNY   64  40  41 W9G18     30.09F
KINGMAN        MOSUNNY   80  38  22 S12G22    29.96F
FLAGSTAFF      PTSUNNY   57  40  52 NW12G25   30.13R

$$

REGIONAL REPORTS    NEVADA/IDAHO/WYOMING

CITY           SKY/WX    TMP DP  RH WIND       PRES   REMARKS
LAS VEGAS, NV  MOSUNNY   85  46  25 SE7       29.84F
ELY            PTSUNNY   68  30  24 VRB3      30.01F
ELKO           CLOUDY    64  45  49 NE13G22   29.97S
POCATELLO, ID  MOSUNNY   70  43  37 W10       29.91F
BURLEY         PTSUNNY   70  49  47 SW20      29.89S
EVANSTON, WY   PTSUNNY   53  39  59 S7        30.04F
ROCK SPRINGS   CLOUDY    52  42  69 E22       30.01S
KEMMERER       CLOUDY    52  37  58 CALM      30.04F

$$


USA.gov is the U.S. government's official web portal to all federal, state and local government web resources and services.